Yankton, SD

6:58 PM CDT on September 21, 2017 (GMT -0500)
Gurney Municipal

Weather History for KYKN - March, 2013

Change the Weather History Date:

Friday, March 1, 2013

  Actual Average Record
Temperature  
Mean Temperature 21 °F -  
Max Temperature 30 °F 39 °F 72 °F (1992)
Min Temperature 12 °F 17 °F -25 °F (1962)
Degree Days  
Heating Degree Days 44    
Moisture  
Dew Point 17 °F    
Average Humidity 77    
Maximum Humidity 100    
Minimum Humidity 64    
Precipitation  
Precipitation 0.00 in - - ()
Sea Level Pressure  
Sea Level Pressure 30.32 in    
Wind  
Wind Speed 11 mph (NNW)    
Max Wind Speed 17 mph    
Max Gust Speed 24 mph    
Visibility 10 miles    
Events      
Averages and records for this station are not official NWS values.
T = Trace of Precipitation, MM = Missing Value Source: NWS Daily Summary

Daily Weather History Graph

Daily Weather History Graph

Search for Another Location

Airport or City:

Trip Planner

Search our weather history database for the weather conditions in past years. The results will help you decide how hot, cold, wet, or windy it might be!

Date:

Astronomy

Mar. 01, 2013 Rise Set
Actual Time 7:04 AM CST 6:19 PM CST
Civil Twilight 6:36 AM CST 6:47 PM CST
Nautical Twilight 6:03 AM CST 7:20 PM CST
Astronomical Twilight 5:30 AM CST 7:53 PM CST
Moon 11:02 PM CST (3/1) 8:45 AM CST (3/1)
Length of Visible Light 12h 11m
Length of Day
11h 14m
Waning Gibbous, 83% of the Moon is Illuminated
Mar 1
Waning Gibbous
Mar 4
Last Quarter
Mar 11
New
Mar 19
First Quarter
Mar 27
Full

Hourly Weather History & Observations

Time (CST) Temp. Windchill Dew Point Humidity Pressure Visibility Wind Dir Wind Speed Gust Speed Precip Events Conditions
12:15 AM 23.0 °F 13.9 °F 17.6 °F 80% 30.25 in 10.0 mi NNW 8.1 mph - N/A   Overcast
12:35 AM 23.0 °F 11.1 °F 17.6 °F 80% 30.25 in 10.0 mi NNW 12.7 mph - N/A   Overcast
12:55 AM 23.0 °F 12.4 °F 15.8 °F 74% 30.25 in 10.0 mi NNW 10.4 mph - N/A   Overcast
1:15 AM 23.0 °F 12.4 °F 15.8 °F 74% 30.26 in 10.0 mi NNW 10.4 mph - N/A   Overcast
1:35 AM 23.0 °F 11.7 °F 17.6 °F 80% 30.26 in 10.0 mi NNW 11.5 mph - N/A   Overcast
2:15 AM 23.0 °F 12.4 °F 17.6 °F 80% 30.26 in 10.0 mi NNW 10.4 mph - N/A   Overcast
2:35 AM 23.0 °F 11.7 °F 17.6 °F 80% 30.26 in 10.0 mi NW 11.5 mph - N/A   Overcast
2:55 AM 23.0 °F 10.1 °F 17.6 °F 80% 30.26 in 10.0 mi NNW 15.0 mph 18.4 mph N/A   Overcast
3:55 AM 23.0 °F 12.4 °F 17.6 °F 80% 30.26 in 10.0 mi NNW 10.4 mph - N/A   Overcast
4:15 AM 23.0 °F 13.1 °F 17.6 °F 80% 30.26 in 10.0 mi NW 9.2 mph - N/A   Overcast
4:35 AM 23.0 °F 13.1 °F 17.6 °F 80% 30.26 in 10.0 mi NW 9.2 mph - N/A   Overcast
4:55 AM 23.0 °F 13.1 °F 17.6 °F 80% 30.26 in 10.0 mi NW 9.2 mph - N/A   Overcast
5:15 AM 23.0 °F 12.4 °F 17.6 °F 80% 30.26 in 10.0 mi NW 10.4 mph - N/A   Overcast
5:35 AM 23.0 °F 11.7 °F 17.6 °F 80% 30.27 in 10.0 mi NNW 11.5 mph - N/A   Overcast
6:15 AM 23.0 °F 11.7 °F 17.6 °F 80% 30.28 in 10.0 mi NW 11.5 mph - N/A   Overcast
6:35 AM 23.0 °F 12.4 °F 15.8 °F 74% 30.28 in 10.0 mi NW 10.4 mph - N/A   Overcast
6:55 AM 23.0 °F 13.1 °F 15.8 °F 74% 30.29 in 10.0 mi NW 9.2 mph - N/A   Overcast
7:15 AM 23.0 °F 13.1 °F 17.6 °F 80% 30.29 in 10.0 mi NW 9.2 mph - N/A   Overcast
7:35 AM 23.0 °F 11.7 °F 17.6 °F 80% 30.30 in 10.0 mi NW 11.5 mph - N/A   Overcast
8:15 AM 23.0 °F 10.1 °F 17.6 °F 80% 30.31 in 10.0 mi NW 15.0 mph - N/A   Overcast
8:35 AM 23.0 °F 11.7 °F 17.6 °F 80% 30.31 in 10.0 mi NW 11.5 mph - N/A   Overcast
8:55 AM 24.8 °F 14.0 °F 17.6 °F 74% 30.32 in 10.0 mi NW 11.5 mph - N/A   Overcast
9:15 AM 24.8 °F 12.9 °F 17.6 °F 74% 30.32 in 10.0 mi NNW 13.8 mph - N/A   Overcast
9:35 AM 24.8 °F 12.9 °F 17.6 °F 74% 30.32 in 10.0 mi NNW 13.8 mph - N/A   Overcast
9:55 AM 24.8 °F 12.9 °F 17.6 °F 74% 30.33 in 10.0 mi NNW 13.8 mph - N/A   Overcast
10:15 AM 26.6 °F 15.2 °F 17.6 °F 69% 30.33 in 10.0 mi NW 13.8 mph - N/A   Mostly Cloudy
10:35 AM 26.6 °F 15.7 °F 17.6 °F 69% 30.33 in 10.0 mi NNW 12.7 mph - N/A   Scattered Clouds
10:55 AM 26.6 °F 16.2 °F 17.6 °F 69% 30.34 in 10.0 mi NNW 11.5 mph - N/A   Partly Cloudy
11:15 AM 26.6 °F 15.7 °F 19.4 °F 74% 30.34 in 10.0 mi NW 12.7 mph 19.6 mph N/A   Mostly Cloudy
11:35 AM 26.6 °F 16.2 °F 17.6 °F 69% 30.34 in 10.0 mi NW 11.5 mph - N/A   Mostly Cloudy
11:55 AM 26.6 °F 15.7 °F 17.6 °F 69% 30.34 in 10.0 mi NNW 12.7 mph - N/A   Scattered Clouds
12:15 PM 28.4 °F 18.0 °F 17.6 °F 64% 30.34 in 10.0 mi NNW 12.7 mph 19.6 mph N/A   Scattered Clouds
12:35 PM 28.4 °F 17.0 °F 17.6 °F 64% 30.34 in 10.0 mi NNW 15.0 mph 19.6 mph N/A   Mostly Cloudy
12:55 PM 28.4 °F 16.2 °F 17.6 °F 64% 30.34 in 10.0 mi NNW 17.3 mph 20.7 mph N/A   Mostly Cloudy
1:15 PM 28.4 °F 16.6 °F 17.6 °F 64% 30.34 in 10.0 mi NNW 16.1 mph 24.2 mph N/A   Mostly Cloudy
1:35 PM 28.4 °F 17.0 °F 17.6 °F 64% 30.33 in 10.0 mi NNW 15.0 mph 20.7 mph N/A   Mostly Cloudy
1:55 PM 30.2 °F 19.3 °F 19.4 °F 64% 30.32 in 10.0 mi NNW 15.0 mph 18.4 mph N/A   Mostly Cloudy
2:15 PM 28.4 °F 17.5 °F 19.4 °F 69% 30.32 in 10.0 mi NNW 13.8 mph - N/A   Partly Cloudy
2:35 PM 28.4 °F 17.0 °F 19.4 °F 69% 30.31 in 10.0 mi NW 15.0 mph 20.7 mph N/A   Scattered Clouds
2:55 PM 28.4 °F 17.5 °F 19.4 °F 69% 30.31 in 10.0 mi NW 13.8 mph - N/A   Mostly Cloudy
3:15 PM 28.4 °F 18.5 °F 17.6 °F 64% 30.31 in 10.0 mi NNW 11.5 mph - N/A   Partly Cloudy
3:35 PM 28.4 °F 18.0 °F 17.6 °F 64% 30.31 in 10.0 mi North 12.7 mph - N/A   Partly Cloudy
3:55 PM 28.4 °F 17.5 °F 17.6 °F 64% 30.32 in 10.0 mi North 13.8 mph - N/A   Partly Cloudy
4:15 PM 28.4 °F 19.1 °F 19.4 °F 69% 30.32 in 10.0 mi NNW 10.4 mph 17.3 mph N/A   Scattered Clouds
4:35 PM 28.4 °F 18.0 °F 19.4 °F 69% 30.33 in 10.0 mi North 12.7 mph - N/A   Mostly Cloudy
4:55 PM 28.4 °F 18.0 °F 17.6 °F 64% 30.33 in 10.0 mi NNW 12.7 mph - N/A   Partly Cloudy
5:15 PM 26.6 °F 16.2 °F 19.4 °F 74% 30.34 in 10.0 mi NNW 11.5 mph - N/A   Partly Cloudy
5:35 PM 26.6 °F 16.8 °F 17.6 °F 69% 30.34 in 10.0 mi NNW 10.4 mph - N/A   Partly Cloudy
5:55 PM 26.6 °F 16.8 °F 17.6 °F 69% 30.34 in 10.0 mi NNW 10.4 mph - N/A   Partly Cloudy
6:15 PM 24.8 °F 16.1 °F 17.6 °F 74% 30.35 in 10.0 mi NNW 8.1 mph - N/A   Clear
6:35 PM 23.0 °F 13.9 °F 17.6 °F 80% 30.35 in 10.0 mi NNW 8.1 mph - N/A   Clear
6:55 PM 21.2 °F 12.6 °F 17.6 °F 86% 30.35 in 10.0 mi NNW 6.9 mph - N/A   Clear
7:15 PM 21.2 °F 12.6 °F 17.6 °F 86% 30.36 in 10.0 mi NNW 6.9 mph - N/A   Clear
7:35 PM 21.2 °F 14.9 °F 17.6 °F 86% 30.36 in 10.0 mi North 4.6 mph - N/A   Clear
7:55 PM 19.4 °F 14.3 °F 15.8 °F 86% 30.36 in 10.0 mi NNW 3.5 mph - N/A   Clear
8:15 PM 17.6 °F 10.7 °F 14.0 °F 86% 30.36 in 10.0 mi NNW 4.6 mph - N/A   Clear
8:35 PM 17.6 °F 10.7 °F 15.8 °F 93% 30.36 in 10.0 mi NNW 4.6 mph - N/A   Clear
8:55 PM 17.6 °F 10.7 °F 15.8 °F 93% 30.37 in 10.0 mi NNW 4.6 mph - N/A   Clear
9:15 PM 17.6 °F 9.3 °F 14.0 °F 86% 30.37 in 10.0 mi NNW 5.8 mph - N/A   Clear
9:35 PM 17.6 °F 9.3 °F 15.8 °F 93% 30.37 in 10.0 mi NNW 5.8 mph - N/A   Clear
9:55 PM 15.8 °F 6.1 °F 15.8 °F 100% 30.37 in 10.0 mi NNW 6.9 mph - N/A   Clear
10:15 PM 15.8 °F 6.1 °F 14.0 °F 93% 30.36 in 10.0 mi NW 6.9 mph - N/A   Clear
10:35 PM 15.8 °F 6.1 °F 15.8 °F 100% 30.36 in 10.0 mi NW 6.9 mph - N/A   Clear
10:55 PM 15.8 °F 8.6 °F 12.2 °F 86% 30.35 in 10.0 mi NW 4.6 mph - N/A   Clear
11:15 PM 12.2 °F 6.1 °F 10.4 °F 92% 30.35 in 10.0 mi NNW 3.5 mph - N/A   Clear
11:35 PM 14.0 °F 5.1 °F 10.4 °F 86% 30.35 in 10.0 mi WNW 5.8 mph - N/A   Clear